Tracking 30986 objects as of 9-Jul-2025
HD Live streaming from Space Station
objects crossing your sky now

SIRIUS-SINP-3U

Track SIRIUS-SINP-3U now!
10-day predictions
SIRIUS-SINP-3U is classified as:


NORAD ID: 57170
Int'l Code: 2023-091E
Perigee: 513.5 km
Apogee: 527.4 km
Inclination: 97.6 °
Period: 94.9 minutes
Semi major axis: 6891 km
RCS: Unknown
Launch date: June 27, 2023
Source: (TBD)
Launch site: VOSTOCHNY COSMODROME (VOSTO)

Uplink (MHz):
Downlink (MHz): 436.550
Beacon (MHz):
Mode: 1k2AFSK/4k8GMSK
Call sign:
Status: Inactive


Uplink (MHz):
Downlink (MHz): 436.260
Beacon (MHz):
Mode: LoRa
Call sign: RS52SG
Status: Unknown

Your satellite tracking list
Your tracking list is empty




NASA's NSSDC Master Catalog

Two Line Element Set (TLE):
1 57170U 23091E   25190.60441754  .00003993  00000-0  20223-3 0  9999
2 57170  97.5611 247.1492 0010124 199.6033 160.4812 15.17532368112095
Source of the keplerian elements: AFSPC